Weather observations for the past three days for
Oakley Municipal Airport
Imperial (Metric)
Date Time (cdt) Wind (mph) Vis. (mi.) Weather Sky Cond. Temperature (ºF) Relative Humidity Wind Chill (°F) Heat Index (°F) Pressure Precipitation (in)
Air Dwpt 6 hour altimeter (in) sea level (mb) 1 hr 3 hr 6 hr
Max. Min.
24 06:15 W 5 7.00 Fair CLR 57.7 54.5 89% 30.2 0.0
24 05:55 W 6 7.00 Fair CLR 57.4 53.8 88% 30.2 0.0
24 05:35 W 6 7.00 Fair CLR 57.7 53.8 87% 30.19 0.0
24 05:15 W 5 10.00 Fair CLR 58.5 54.7 87% 30.19 0.0
24 04:55 W 5 7.00 Fair CLR 58.6 54.7 87% 30.19 0.0
24 04:35 W 5 10.00 Fair CLR 59 54.9 86% 30.19 0.0
24 04:15 W 5 10.00 Fair CLR 59 55 87% 30.19 0.0
24 03:55 SW 5 10.00 Fair CLR 59.2 55 86% 30.19 0.0
24 03:35 SW 3 10.00 Fair CLR 59.4 55.4 87% 30.19 0.0
24 03:15 SW 3 10.00 Fair CLR 59.9 55.6 86% 30.19 0.0
24 02:55 SW 3 10.00 Fair CLR 60.1 55.6 85% 30.19 0.0
24 02:35 SW 3 10.00 Fair CLR 60.4 55.9 85% 30.19 0.0
24 02:15 SW 5 10.00 Fair CLR 60.3 56.1 86% 30.19 0.0
24 01:55 SW 3 10.00 Fair CLR 60.1 55.8 86% 30.2 0.0
24 01:35 SW 6 10.00 Fair CLR 61 56.1 84% 30.19 0.0
24 01:15 S 5 10.00 Fair CLR 61.2 56.3 84% 30.2 0.0
24 00:55 S 5 10.00 Fair CLR 61.5 55.9 88.3 61.5 82% 30.19 0.0
24 00:35 S 5 10.00 Fair CLR 62.6 56.3 80% 30.19 0.0
24 00:15 S 5 10.00 Fair CLR 64 56.3 76% 30.19 0.0
23 23:55 S 7 10.00 Fair CLR 64.8 56.7 75% 30.19 0.0
23 23:35 S 6 10.00 Fair CLR 64.9 56.3 74% 30.17 0.0
23 23:15 S 7 10.00 Fair CLR 66.2 56.1 70% 30.17 0.0
23 22:55 S 7 10.00 Fair CLR 68 55.4 64% 30.17 0.0
23 22:35 S 7 10.00 Fair CLR 70.5 55.6 59% 30.16 0.0
23 22:15 S 8 10.00 Fair CLR 71.4 55 56% 30.16 0.0
23 21:55 S 7 7.00 Fair CLR 72.5 54.9 54% 30.15 0.0
23 21:35 S 7 7.00 Fair CLR 72.7 54.9 54% 30.14 0.0
23 21:15 S 7 7.00 Fair CLR 75.2 54.3 48% 78 30.14 0.0
23 20:55 S 6 7.00 Fair CLR 76.5 54.5 47% 78 30.14 0.0
23 20:35 S 7 10.00 Fair CLR 78.8 54.3 43% 79 30.13 0.0
23 20:15 S 7 10.00 Fair CLR 81.5 53.6 38% 81 30.13 0.0
23 19:55 S 7 10.00 Fair CLR 83.7 52.9 35% 82 30.12 0.0
23 19:35 S 6 10.00 Fair CLR 85.5 51.1 31% 83 30.11 0.0
23 19:15 SE 5 10.00 Fair CLR 87.1 51.4 29% 85 30.11 0.0
23 18:55 SE 6 10.00 Fair CLR 89.1 50.4 93.2 86.2 26% 86 30.11 0.0
23 18:35 Calm 10.00 Fair CLR 89.6 47.8 24% 86 30.11 0.0
23 18:15 Calm 10.00 Fair CLR 89.6 48.2 24% 86 30.11 0.0
23 17:55 SE 3 10.00 Fair CLR 90.9 47.1 22% 87 30.11 0.0
23 17:35 E 5 10.00 Fair CLR 91 48.4 23% 88 30.11 0.0
23 17:15 Calm 10.00 Fair CLR 91.4 47.5 22% 88 30.11 0.0
23 16:55 NW 5 10.00 Fair CLR 91.4 48.9 23% 88 30.12 0.0
23 16:35 N 3 10.00 Fair CLR 91.9 48.2 22% 89 30.12 0.0
23 16:15 Calm 10.00 Fair CLR 92.7 46.2 20% 89 30.12 0.0
23 15:55 E 3 10.00 Fair CLR 91.6 47.5 22% 88 30.12 0.0
23 15:35 Calm 10.00 Fair CLR 91.2 45.3 20% 88 30.12 0.0
23 15:15 Calm 10.00 Fair CLR 90 48 24% 87 30.13 0.0
23 14:55 Calm 10.00 Fair CLR 90 47.3 23% 87 30.13 0.0
23 14:35 SE 3 10.00 Fair CLR 90.1 48.4 24% 87 30.13 0.0
23 14:15 Calm 10.00 Fair CLR 89.2 49.5 25% 86 30.14 0.0
23 13:55 NE 6 10.00 Fair CLR 88.5 52.2 29% 86 30.14 0.0
23 13:35 N 5 10.00 Fair CLR 87.6 52.3 30% 85 30.14 0.0
23 13:15 NW 3 10.00 Fair CLR 86.7 53.2 32% 85 30.15 0.0
23 12:55 N 6 10.00 Fair CLR 85.6 54.5 85.6 57.2 34% 84 30.15 0.0
23 12:35 NW 5 10.00 Fair CLR 84.9 55.8 37% 84 30.15 0.0
23 12:15 E 3 10.00 Fair CLR 84.9 55.9 37% 84 30.16 0.0
23 11:55 Calm 10.00 Fair CLR 83.3 55.4 38% 82 30.16 0.0
23 11:35 Calm 10.00 Fair CLR 82.6 55 39% 82 30.16 0.0
23 11:15 Calm 10.00 Fair CLR 82.4 54.9 39% 82 30.16 0.0
23 10:55 Calm 10.00 Fair CLR 81.1 56.3 43% 81 30.16 0.0
23 10:35 Calm 10.00 Fair CLR 79.2 56.8 46% 80 30.16 0.0
23 10:15 Calm 7.00 Fair CLR 77.2 57.6 51% 79 30.16 0.0
23 09:55 Calm 10.00 Fair CLR 75.6 59.7 58% 78 30.16 0.0
23 09:35 Calm 7.00 Fair CLR 72.7 60.6 66% 30.15 0.0
23 09:15 Calm 5.00 Fair with Haze CLR 70.9 61 71% 30.15 0.0
23 08:55 Calm 10.00 Fair CLR 68.2 60.8 77% 30.15 0.0
23 08:35 Calm 10.00 Fair CLR 65.5 60.8 85% 30.15 0.0
23 08:15 N 3 7.00 Fair CLR 63.7 60.3 89% 30.14 0.0
23 07:55 Calm 5.00 Fog/Mist CLR 61.5 59.2 92% 30.14 0.0
23 07:35 NW 3 5.00 Fog/Mist CLR 58.8 56.5 92% 30.14 0.0
23 07:15 N 6 5.00 Fog/Mist CLR 57.7 55.4 92% 30.14 0.0
23 06:55 NW 7 5.00 Fog/Mist CLR 56.8 54.5 59.7 56.7 92% 30.13 0.0
23 06:35 N 6 5.00 Fog/Mist CLR 56.8 54.3 91% 30.13 0.0
23 06:15 N 6 7.00 Fair CLR 56.8 54 90% 30.13 0.0
23 05:55 NW 5 5.00 Fog/Mist CLR 57.6 54.5 90% 30.13 0.0
23 05:35 NW 5 7.00 Fair CLR 59.4 56.1 89% 30.13 0.0
23 05:15 NW 7 7.00 Fair CLR 59.4 56.7 91% 30.12 0.0
23 04:55 NW 6 7.00 Fair CLR 59 56.7 92% 30.13 0.0
23 04:35 NW 6 7.00 Fair CLR 57.4 55 92% 30.13 0.0
23 04:15 NW 5 7.00 Fair CLR 58.1 55.4 91% 30.13 0.0
23 03:55 Calm 7.00 Fair CLR 58.3 55.9 92% 30.13 0.0
23 03:35 NW 7 7.00 Fair CLR 58.1 55.6 91% 30.13 0.0
23 03:15 W 7 7.00 Fair CLR 57.6 55.4 93% 30.13 0.0
23 02:55 W 5 10.00 Fair CLR 57.4 55 92% 30.13 0.0
23 02:35 W 5 10.00 Fair CLR 57.7 55.6 93% 30.14 0.0
23 02:15 SW 5 7.00 Fair CLR 57.2 54.7 91% 30.13 0.0
23 01:55 SW 5 7.00 Fair CLR 57.4 54.7 91% 30.14 0.0
23 01:35 S 6 7.00 Fair CLR 57.9 55.4 91% 30.13 0.0
23 01:15 S 5 7.00 Fair CLR 58.6 55.9 91% 30.14 0.0
23 00:55 Calm 7.00 Fair CLR 58.8 55.9 82.6 58.8 90% 30.13 0.0
23 00:35 S 5 10.00 Fair CLR 59.9 57.2 91% 30.13 0.0
23 00:15 S 3 10.00 Fair CLR 60.4 57.2 89% 30.13 0.0
22 23:55 S 6 10.00 Fair CLR 61 57.4 88% 30.13 0.0
22 23:35 Calm 10.00 Fair CLR 62.1 57.4 85% 30.13 0.0
22 23:15 S 5 10.00 Fair CLR 63.9 58.1 82% 30.12 0.0
22 22:55 S 6 10.00 Fair CLR 64.2 59.2 84% 30.13 0.0
22 22:35 SE 5 10.00 Fair CLR 64.9 59.4 82% 30.13 0.0
22 22:15 S 6 10.00 Fair CLR 65.7 59.5 81% 30.12 0.0
22 21:55 S 5 10.00 Fair CLR 67.1 59.9 78% 30.11 0.0
22 21:35 S 7 10.00 Fair CLR 68.2 60.1 75% 30.11 0.0
22 21:15 SE 9 10.00 Fair CLR 69.1 59.5 72% 30.11 0.0
22 20:55 S 7 10.00 Fair CLR 70.7 58.3 65% 30.1 0.0
22 20:35 SE 9 10.00 Fair CLR 73.6 57.4 57% 30.1 0.0
22 20:15 SE 10 10.00 Fair CLR 76.8 55.9 49% 78 30.09 0.0
22 19:55 SE 12 10.00 Fair CLR 81 53.1 38% 80 30.09 0.0
22 19:35 NE 9 10.00 Fair CLR 80.8 49.6 34% 80 30.08 0.0
22 19:15 NE 8 10.00 Fair CLR 82.2 48 30% 81 30.07 0.0
22 18:55 NE 7 10.00 Fair CLR 82.4 49.1 88.5 81 31% 81 30.07 0.0
22 18:35 NE 6 10.00 Fair CLR 83.8 49.5 30% 82 30.07 0.0
22 18:15 NE 12 10.00 Fair CLR 84.2 50.2 31% 82 30.07 0.0
22 17:55 NE 10 10.00 Fair CLR 84.6 51.3 32% 83 30.06 0.0
22 17:35 N 7 10.00 Partly Cloudy SCT060 84.2 52.9 34% 83 30.07 0.0
22 17:15 N 9 10.00 Partly Cloudy SCT060 SCT070 SCT100 85.5 53.6 34% 84 30.07 0.0
22 16:55 NE 5 10.00 Partly Cloudy SCT060 SCT070 82.6 52.7 36% 81 30.08 0.0
22 16:35 E 5 10.00 Fair CLR 87.1 52.2 30% 85 30.08 0.0
22 16:15 NE 7 G 16 10.00 Partly Cloudy SCT085 SCT120 87.3 52.3 30% 85 30.08 0.0
22 15:55 Calm 10.00 Partly Cloudy SCT065 SCT085 87.4 52 30% 85 30.09 0.0
22 15:35 N 3 10.00 Mostly Cloudy SCT065 BKN080 85.8 50.9 30% 84 30.1 0.0
22 15:15 Calm 10.00 Partly Cloudy SCT085 87.4 52.7 30% 85 30.1 0.0
22 14:55 SE 3 10.00 Partly Cloudy SCT055 SCT065 SCT085 81 53.8 39% 81 30.1 0.0
22 14:35 E 7 5.00 Partly Cloudy with Haze SCT065 SCT085 82.8 52.3 35% 82 30.11 0.0
22 14:15 NW 8 10.00 Fair CLR 84.9 52.9 33% 83 30.12 0.0
22 13:55 N 5 10.00 Fair CLR 83.7 55.4 38% 83 30.13 0.0
22 13:35 NW 8 10.00 Partly Cloudy SCT080 SCT110 82.6 56.3 41% 82 30.13 0.0
22 13:15 NW 7 10.00 Mostly Cloudy BKN080 BKN110 81.7 54.1 39% 81 30.14 0.0
22 12:55 NW 5 10.00 Partly Cloudy SCT080 SCT120 83.5 54.5 83.5 59 37% 82 30.14 0.0
22 12:35 Calm 10.00 Mostly Cloudy BKN090 BKN110 80.6 54.9 41% 80 30.15 0.0
22 12:15 Calm 10.00 Mostly Cloudy SCT090 BKN110 77.7 56.1 47% 79 30.15 0.0
22 11:55 N 3 10.00 Mostly Cloudy BKN090 BKN110 77 55.2 47% 79 30.16 0.0
22 11:35 N 3 10.00 Partly Cloudy SCT090 SCT110 77 54.7 46% 78 30.16 0.0
22 11:15 NE 8 10.00 Fair CLR 74.5 59 59% 30.17 0.0
22 10:55 NE 9 10.00 Partly Cloudy SCT095 71.6 57.9 62% 30.16 0.0
22 10:35 NE 8 10.00 Partly Cloudy SCT095 70.9 57.9 64% 30.16 0.0
22 10:15 N 7 10.00 Mostly Cloudy SCT085 BKN110 70.9 57.9 64% 30.17 0.0
22 09:55 N 7 10.00 Partly Cloudy SCT110 71.8 57.6 61% 30.17 0.0
22 09:35 NE 9 10.00 Partly Cloudy SCT120 70.9 58.5 65% 30.17 0.0
22 09:15 N 6 10.00 Partly Cloudy SCT120 68.9 58.5 70% 30.18 0.0
22 08:55 N 7 10.00 Fair CLR 67.8 59.9 76% 30.17 0.0
22 08:35 NW 9 10.00 Partly Cloudy SCT120 67.1 58.8 75% 30.17 0.0
22 08:15 NE 6 10.00 Partly Cloudy SCT120 64.8 59 82% 30.15 0.0
22 07:55 N 6 10.00 Fair CLR 62.2 58.5 88% 30.15 0.0
22 07:35 N 6 10.00 Fair CLR 60.4 57.2 89% 30.15 0.0
22 07:15 N 7 7.00 Partly Cloudy SCT090 59.5 56.5 90% 30.15 0.0
22 06:55 N 12 G 20 7.00 Mostly Cloudy BKN090 58.6 56.1 62.1 56.8 91% 30.15 0.0
22 06:35 Calm 10.00 Partly Cloudy SCT090 57.4 54.5 90% 30.14 0.0
22 06:15 Calm 10.00 Fair CLR 58.5 55.6 90% 30.14 0.0
22 05:55 Calm 10.00 Fair CLR 58.3 55.8 91% 30.14 0.0
22 05:35 Calm 10.00 Fair CLR 56.8 54 90% 30.14 0.0
22 05:15 Calm 10.00 Fair CLR 57.4 54.5 90% 30.14 0.0
22 04:55 Calm 10.00 Fair CLR 57.4 54.3 90% 30.14 0.0
22 04:35 S 3 10.00 Fair CLR 58.1 54.9 89% 30.14 0.0
22 04:15 Calm 10.00 Fair CLR 58.5 55 88% 30.15 0.0
22 03:55 S 3 10.00 Fair CLR 58.6 55 88% 30.14 0.0
22 03:35 S 5 10.00 Fair CLR 59 54.5 85% 30.14 0.0
22 03:15 S 3 10.00 Fair CLR 61 55.6 83% 30.15 0.0
22 02:55 S 3 10.00 Fair CLR 60.8 55.4 83% 30.15 0.0
22 02:35 Calm 10.00 Fair CLR 61 55.6 83% 30.16 0.0
22 02:15 Calm 10.00 Fair CLR 61.2 55.4 81% 30.17 0.0
22 01:55 Calm 10.00 Fair CLR 61.5 55.9 82% 30.17 0.0
22 01:35 Calm 10.00 Fair CLR 61.2 55.6 82% 30.18 0.0
22 01:15 SE 5 10.00 Fair CLR 61.9 55.9 81% 30.19 0.0
22 00:55 SE 5 10.00 Fair CLR 61.7 56.3 82.9 61.7 83% 30.19 0.0
22 00:35 E 6 10.00 Fair CLR 62.4 56.3 81% 30.19 0.0
22 00:15 E 5 10.00 Fair CLR 63.5 56.5 78% 30.2 0.0
21 23:55 SE 7 10.00 Fair CLR 64 56.7 77% 30.19 0.0
21 23:35 SE 6 10.00 Fair CLR 64.4 56.3 75% 30.2 0.0
21 23:15 SE 6 10.00 Fair CLR 64.8 56.3 74% 30.2 0.0
21 22:55 SE 7 10.00 Fair CLR 65.7 56.3 72% 30.2 0.0
21 22:35 SE 7 10.00 Fair CLR 66.2 56.3 71% 30.2 0.0
21 22:15 E 8 10.00 Fair CLR 67.1 55 65% 30.19 0.0
21 21:55 E 8 10.00 Fair CLR 69.1 53.4 58% 30.17 0.0
21 21:35 E 6 10.00 Fair CLR 69.1 52.5 56% 30.16 0.0
21 21:15 NE 6 10.00 Fair CLR 68.9 53.8 59% 30.16 0.0
21 20:55 NE 5 10.00 Fair CLR 69.6 54.5 59% 30.16 0.0
21 20:35 NE 5 10.00 Fair CLR 73.2 50.9 46% 30.15 0.0
21 20:15 NE 6 10.00 Fair CLR 76.5 49.5 39% 78 30.15 0.0
21 19:55 NE 7 10.00 Fair CLR 79.2 48.2 34% 79 30.15 0.0
21 19:35 E 7 10.00 Fair CLR 81.3 47.1 30% 80 30.15 0.0
21 19:15 E 8 10.00 Fair CLR 82.4 47.3 29% 81 30.15 0.0
21 18:55 NE 7 G 16 10.00 Fair CLR 83.3 46.4 85.6 80.6 28% 81 30.15 0.0
21 18:35 NE 8 10.00 Fair CLR 84 45.3 26% 82 30.14 0.0
21 18:15 E 9 10.00 Fair CLR 84.6 46.9 27% 82 30.15 0.0
21 17:55 E 8 10.00 Partly Cloudy SCT075 84.4 46.2 26% 82 30.15 0.0
21 17:15 NE 12 G 17 10.00 Fair CLR 84.6 48.7 29% 82 30.15 0.0
21 15:55 NE 12 G 18 10.00 Partly Cloudy SCT060 SCT080 83.5 52.3 34% 82 30.16 0.0
21 15:35 N 9 10.00 Partly Cloudy SCT050 SCT075 83.3 53.6 36% 82 30.17 0.0
21 15:15 E 9 10.00 Partly Cloudy SCT050 SCT065 84.9 53.4 34% 83 30.17 0.0
21 14:55 NE 12 10.00 Partly Cloudy SCT050 SCT065 83.3 54.5 37% 82 30.19 0.0
21 14:35 NE 12 10.00 Partly Cloudy SCT050 SCT065 82.9 54.3 37% 82 30.19 0.0
21 14:15 NE 9 G 16 10.00 Mostly Cloudy SCT050 SCT055 BKN065 81.9 53.6 38% 81 30.2 0.0
21 13:55 NE 9 G 17 10.00 Mostly Cloudy SCT050 BKN060 BKN080 81.5 54 39% 81 30.21 0.0
21 13:35 NE 7 10.00 Fair CLR 82.6 55 39% 82 30.21 0.0
21 13:15 NE 9 10.00 Partly Cloudy SCT044 SCT055 81.7 55.8 41% 81 30.22 0.0
21 12:55 E 10 10.00 Partly Cloudy SCT044 SCT055 79.5 55.9 80.6 58.8 44% 80 30.22 0.0
21 12:35 NE 10 G 16 10.00 Partly Cloudy SCT043 SCT050 79.7 55.9 44% 80 30.23 0.0
21 12:15 NE 10 10.00 Partly Cloudy SCT050 79.2 56.3 46% 80 30.23 0.0
21 11:55 NE 12 10.00 Partly Cloudy SCT037 SCT050 77.7 57.2 49% 79 30.23 0.0
21 11:35 NE 14 G 17 10.00 Partly Cloudy SCT037 SCT050 76.3 57.2 52% 78 30.24 0.0
21 11:15 NE 15 10.00 Partly Cloudy SCT032 SCT041 SCT050 75.6 57 53% 78 30.24 0.0
21 10:55 NE 13 G 17 10.00 Partly Cloudy SCT030 76.1 58.6 55% 78 30.25 0.0
21 10:35 NE 12 10.00 Fair CLR 73.6 58.1 59% 30.24 0.0
21 10:15 N 10 10.00 Fair CLR 73 57.9 59% 30.24 0.0
21 09:55 NE 13 10.00 Fair CLR 72.9 60.3 65% 30.24 0.0
21 09:35 N 7 10.00 Fair CLR 68.9 59.5 72% 30.24 0.0
21 09:15 N 9 10.00 Fair CLR 69.8 58.8 68% 30.24 0.0
21 08:55 N 8 10.00 Fair CLR 67.8 60.3 77% 30.24 0.0
21 08:35 N 8 10.00 Fair CLR 65.1 60.4 85% 30.23 0.0
21 08:15 N 7 10.00 Fair CLR 63.1 60.1 90% 30.22 0.0
21 07:55 N 7 7.00 Fair CLR 60.8 58.3 91% 30.22 0.0
21 07:35 N 7 5.00 Fog/Mist CLR 59.5 57.2 92% 30.22 0.0
21 07:15 N 7 5.00 Fog/Mist CLR 59 56.3 91% 30.21 0.0
21 06:55 N 7 5.00 Fog/Mist CLR 58.8 56.3 61.7 57.6 91% 30.21 0.0
Date Time (cdt) Wind (mph) Vis. (mi.) Weather Sky Cond. Air Dwpt Max. Min. Relative Humidity Wind Chill (°F) Heat Index (°F) altimeter (in) sea level (mb) 1 hr 3 hr 6 hr
6 hour
Temperature (ºF) Pressure Precipitation (in)